Regional Weather Roundup
Issued by NWS Little Rock, AR

Home | Current Version | Previous Version | Graphics & Text | Print | Product List | Glossary On
Versions: 1 2 3 4 5 6 7 8 9 10 11 12 13 14 15 16 17 18 19 20 21 22 23 24 25 26 27 28 29 30 31 32 33
000
ASUS44 KLZK 211905
RWRLZK

WEATHER ROUNDUP FOR ARKANSAS
NATIONAL WEATHER SERVICE LITTLE ROCK AR
200 PM CDT FRI JUL 21 2017

NOTE: "FAIR" INDICATES FEW OR NO CLOUDS BELOW 12,000 FEET WITH NO
SIGNIFICANT WEATHER AND/OR OBSTRUCTIONS TO VISIBILITY.

ARZ001-003-010-029-212000-
NORTHWEST ARKANSAS

CITY           SKY/WX    TMP DP  RH WIND       PRES   REMARKS
FAYETTEVILLE   MOSUNNY   91  73  55 S13       30.04F HX  99
FORT SMITH     SUNNY     97  70  41 SW9       29.99F HX 103
HARRISON       SUNNY     92  72  51 VRB5      30.05F HX  99
BENTONVILLE    SUNNY     91  72  52 S7        30.05F HX  98
ROGERS         MOSUNNY   93  70  46 S14       30.04F HX  99
SILOAM SPGS    MOSUNNY   93  72  49 S13       30.02F HX 100
HIGHFILL       SUNNY     94  70  45 SW13      30.03F HX 100
SPRINGDALE     MOSUNNY   91  70  49 SW9       30.05F HX  97
$$

ARZ004-005-016-212000-
NORTH CENTRAL ARKANSAS

CITY           SKY/WX    TMP DP  RH WIND       PRES   REMARKS
BATESVILLE     MOSUNNY   97  73  46 S7        30.00F HX 107
FLIPPIN        MOSUNNY   93  72  49 E6        30.00F HX 100
$$

ARZ040-041-212000-
WEST CENTRAL ARKANSAS

CITY           SKY/WX    TMP DP  RH WIND       PRES   REMARKS
MENA           MOSUNNY   97  72  44 SW6       30.05F HX 105
MOUNT IDA      MOSUNNY   94  65  38 CALM      30.01F HX  96
$$

ARZ009-017-025-026-028-212000-
NORTHEAST ARKANSAS

CITY           SKY/WX    TMP DP  RH WIND       PRES   REMARKS
CORNING        LGT RAIN  95  79  59 SW9       30.00S HX 112
JONESBORO      PTSUNNY   96  78  56 S10       29.99F HX 112
WALNUT RIDGE   MOSUNNY   95  75  52 SW3       29.99F HX 107
BLYTHEVILLE    SUNNY     95  74  50 W8        30.00F HX 105
$$

ARZ022-023-033-042-044-212000-
CENTRAL ARKANSAS

CITY           SKY/WX    TMP DP  RH WIND       PRES   REMARKS
LITTLE ROCK    MOSUNNY   94  75  54 SW5       30.00F HX 105
N LITTLE ROCK    N/A     94  74  50 CALM      29.98F HX 104
JACKSONVILLE   MOSUNNY   96  76  53 NE6       30.00F HX 109
CONWAY           N/A     95  75  52 E3        29.98F HX 107
SEARCY         SUNNY     97  78  54 VRB7      30.02F HX 114
HOT SPRINGS    PTSUNNY   95  73  48 S8        30.01F HX 104
CLINTON        FAIR      93  75  55 VRB3      30.01F HX 104
$$

ARZ036-212000-
EAST ARKANSAS

CITY           SKY/WX    TMP DP  RH WIND       PRES   REMARKS
$$

ARZ050-053-066-070-073-212000-
SOUTHWEST ARKANSAS

CITY           SKY/WX    TMP DP  RH WIND       PRES   REMARKS
ARKADELPHIA    FAIR      95  78  58 VRB6      30.00F HX 111
CAMDEN         PTSUNNY   97  73  46 SW3       30.00F HX 107
TEXARKANA      MOSUNNY   91  72  53 VRB3      30.01F HX  98
EL DORADO      SUNNY     95  73  48 SW5       30.01F HX 104
DE QUEEN       SUNNY     95  73  48 SW8       29.99F HX 104
$$

ARZ056-057-069-212000-
SOUTHEAST ARKANSAS

CITY           SKY/WX    TMP DP  RH WIND       PRES   REMARKS
PINE BLUFF     SUNNY     94  71  47 VRB3      30.01F HX 101
STUTTGART      MOSUNNY   97  68  38 SW5       30.02F HX 101
MONTICELLO     PTSUNNY   94  73  50 VRB3      30.01F HX 103

$$






USA.gov is the U.S. government's official web portal to all federal, state and local government web resources and services.